Date String (YYYY-MM-DD hh:mm:ss) UTC,Instrument flags,absolute air pressure of the measurement (hPa),sample flow rate (lpm),inlet stack bypass flow (lpm),air temperature of the measurement (°C),ambient temperature measured by the external sensor (°C),aerosol sample conditioner tube jacket temperature (°C),OPC LED temperature (°C),internal box temperature (°C),relative humidity of the measurement (%),span deviation,mass concentration of particles derived from Lorenz-Mie calculation of OPC scattering (μg/m³),mass concentration of particles derived from Lorenz-Mie calculation of OPC scattering (μg/m³),mass concentration of particles derived from Lorenz-Mie calculation of OPC scattering (μg/m³)
DateTimeUTC,F1_M11,P_M11,Q1_M11,Q2_M11,T1_M11,T2_M11,T3_M11,T4_M11,T5_M11,U1_M11,ZSPAN_M11,X2_M11,X0_M11,X1_M11
2023-11-06 06:00:00,SystemResetWarning,0826.2,5.00,000.00,028.4,027.5,000.0,036.7,029.8,9.8,0000.0,0003.77,0010.72,0003.05
2023-11-06 06:01:00,SystemResetWarning,0826.2,5.01,000.00,028.4,027.5,000.0,036.7,029.8,9.7,0000.0,0003.78,0011.33,0003.05
2023-11-06 06:02:00,SystemResetWarning,0826.2,5.01,000.00,028.4,027.5,000.0,036.7,029.8,9.6,0000.0,0003.77,0012.41,0003.03
2023-11-06 06:03:00,SystemResetWarning,0826.0,5.00,000.00,028.4,027.5,000.0,036.7,029.8,9.6,0000.0,0003.79,0012.45,0003.01
2023-11-06 06:04:00,SystemResetWarning,0826.2,5.00,000.00,028.4,027.5,000.0,036.7,029.8,9.7,0000.0,0003.75,0011.66,0003.00
2023-11-06 06:05:00,SystemResetWarning,0826.5,5.00,000.00,028.4,027.5,000.0,036.7,029.8,9.9,0000.0,0003.72,0011.44,0002.98
2023-11-06 06:06:00,SystemResetWarning,0826.6,4.99,000.00,028.4,027.5,000.0,036.7,029.8,10.1,0000.0,0003.68,0011.45,0002.94
2023-11-06 06:07:00,SystemResetWarning,0826.6,5.00,000.00,028.4,027.5,000.0,036.7,029.8,10.1,0000.0,0003.65,0011.77,0002.91
2023-11-06 06:08:00,SystemResetWarning,0826.5,5.01,000.00,028.4,027.5,000.0,036.7,029.8,10.2,0000.0,0003.62,0011.62,0002.90
2023-11-06 06:09:00,SystemResetWarning,0826.4,5.01,000.00,028.4,027.5,000.0,036.7,029.8,10.3,0000.0,0003.62,0012.47,0002.89
2023-11-06 06:10:00,SystemResetWarning,0826.5,5.01,000.00,028.4,027.5,000.0,036.7,029.8,10.2,0000.0,0003.62,0012.83,0002.88
2023-11-06 06:11:00,SystemResetWarning,0826.5,4.99,000.00,028.4,027.5,000.0,036.7,029.8,10.2,0000.0,0003.62,0012.08,0002.88
2023-11-06 06:12:00,SystemResetWarning,0826.4,4.99,000.00,028.4,027.5,000.0,036.7,029.8,10.2,0000.0,0003.59,0011.86,0002.88
2023-11-06 06:13:00,SystemResetWarning,0826.4,4.99,000.00,028.4,027.5,000.0,036.7,029.8,10.1,0000.0,0003.59,0011.04,0002.88
2023-11-06 06:14:00,SystemResetWarning,0826.4,5.01,000.00,028.4,027.5,000.0,036.7,029.8,10.2,0000.0,0003.59,0010.87,0002.90
2023-11-06 06:15:00,SystemResetWarning,0826.2,5.00,000.00,028.4,027.5,000.0,036.7,029.8,10.3,0000.0,0003.58,0010.97,0002.94
2023-11-06 06:16:00,SystemResetWarning,0826.2,5.00,000.00,028.4,027.5,000.0,036.8,029.8,10.4,0000.0,0003.60,0010.89,0002.96
2023-11-06 06:17:00,SystemResetWarning,0826.3,5.00,000.00,028.4,027.5,000.0,036.8,029.8,10.5,0000.0,0003.58,0010.65,0002.99
2023-11-06 06:18:00,SystemResetWarning,0826.4,5.00,000.00,028.4,027.5,000.0,036.8,029.8,10.7,0000.0,0003.62,0010.89,0003.02
2023-11-06 06:19:00,SystemResetWarning,0826.4,5.00,000.00,028.4,027.5,000.0,036.8,029.8,10.8,0000.0,0003.65,0010.63,0003.03
2023-11-06 06:20:00,SystemResetWarning,0826.4,4.99,000.00,028.4,027.5,000.0,036.8,029.8,10.8,0000.0,0003.69,0010.41,0003.05
2023-11-06 06:21:00,SystemResetWarning,0826.6,4.99,000.00,028.4,027.5,000.0,036.8,029.8,10.9,0000.0,0003.69,0009.87,0003.06
2023-11-06 06:22:00,SystemResetWarning,0826.6,4.99,000.00,028.4,027.5,000.0,036.8,029.8,10.9,0000.0,0003.69,0009.87,0003.06
2023-11-06 06:23:00,SystemResetWarning,0826.6,4.99,000.00,028.4,027.5,000.0,036.8,029.8,10.9,0000.0,0003.72,0010.02,0003.08
2023-11-06 06:24:00,SystemResetWarning,0826.4,5.00,000.00,028.4,027.5,000.0,036.8,029.8,10.9,0000.0,0003.75,0010.61,0003.10
2023-11-06 06:25:00,SystemResetWarning,0826.3,5.00,000.00,028.4,027.5,000.0,036.8,029.8,10.9,0000.0,0003.74,0010.63,0003.10
2023-11-06 06:26:00,SystemResetWarning,0826.3,5.00,000.00,028.4,027.5,000.0,036.8,029.8,10.8,0000.0,0003.74,0010.45,0003.10
2023-11-06 06:27:00,SystemResetWarning,0826.5,5.01,000.00,028.4,027.5,000.0,036.8,029.8,10.9,0000.0,0003.79,0010.83,0003.11
2023-11-06 06:28:00,SystemResetWarning,0826.6,5.00,000.00,028.4,027.5,000.0,036.8,029.8,10.8,0000.0,0003.85,0011.48,0003.10
2023-11-06 06:29:00,SystemResetWarning,0826.6,5.00,000.00,028.4,027.5,000.0,036.8,029.8,10.9,0000.0,0003.85,0011.34,0003.10
2023-11-06 06:30:00,SystemResetWarning,0826.7,5.00,000.00,028.4,027.4,000.0,036.8,029.8,10.9,0000.0,0003.85,0010.96,0003.09
2023-11-06 06:31:00,SystemResetWarning,0826.8,5.00,000.00,028.4,027.4,000.0,036.8,029.8,10.9,0000.0,0003.83,0010.75,0003.07
2023-11-06 06:32:00,SystemResetWarning,0826.8,5.00,000.00,028.4,027.4,000.0,036.8,029.8,10.9,0000.0,0003.81,0010.65,0003.05
2023-11-06 06:33:00,SystemResetWarning,0826.8,5.00,000.00,028.4,027.4,000.0,036.8,029.8,10.9,0000.0,0003.83,0010.71,0003.04
2023-11-06 06:34:00,SystemResetWarning,0826.7,5.00,000.00,028.4,027.4,000.0,036.8,029.8,10.9,0000.0,0003.85,0010.72,0003.04
2023-11-06 06:35:00,SystemResetWarning,0826.6,5.00,000.00,028.4,027.4,000.0,036.8,029.8,10.8,0000.0,0003.85,0010.07,0003.01
2023-11-06 06:36:00,SystemResetWarning,0826.6,5.00,000.00,028.4,027.4,000.0,036.8,029.8,10.8,0000.0,0003.90,0010.17,0003.00
2023-11-06 06:37:00,SystemResetWarning,0826.6,5.00,000.00,028.4,027.5,000.0,036.8,029.8,10.8,0000.0,0003.92,0011.14,0002.98
2023-11-06 06:38:00,SystemResetWarning,0826.7,5.00,000.00,028.4,027.5,000.0,036.8,029.8,10.7,0000.0,0003.90,0010.99,0002.97
2023-11-06 06:39:00,SystemResetWarning,0826.8,5.00,000.00,028.4,027.5,000.0,036.8,029.8,10.8,0000.0,0003.85,0010.05,0002.94
2023-11-06 06:40:00,SystemResetWarning,0826.8,5.00,000.00,028.4,027.5,000.0,036.8,029.8,10.8,0000.0,0003.80,0009.96,0002.92
2023-11-06 06:41:00,SystemResetWarning,0826.9,5.00,000.00,028.4,027.5,000.0,036.8,029.8,10.7,0000.0,0003.78,0010.44,0002.91
2023-11-06 06:42:00,SystemResetWarning,0826.9,5.00,000.00,028.4,027.4,000.0,036.8,029.8,10.8,0000.0,0003.77,0010.90,0002.90
2023-11-06 06:43:00,SystemResetWarning,0826.9,5.00,000.00,028.4,027.4,000.0,036.8,029.8,10.8,0000.0,0003.75,0011.38,0002.90
2023-11-06 06:44:00,SystemResetWarning,0826.9,5.00,000.00,028.4,027.4,000.0,036.8,029.8,10.8,0000.0,0003.70,0011.74,0002.87
2023-11-06 06:45:00,SystemResetWarning,0827.0,5.01,000.00,028.4,027.4,000.0,036.8,029.8,10.7,0000.0,0003.67,0012.12,0002.85
2023-11-06 06:46:00,SystemResetWarning,0826.9,5.00,000.00,028.4,027.4,000.0,036.8,029.8,10.7,0000.0,0003.66,0012.89,0002.83
2023-11-06 06:47:00,SystemResetWarning,0826.9,5.00,000.00,028.4,027.4,000.0,036.8,029.8,10.7,0000.0,0003.60,0012.89,0002.83
2023-11-06 06:48:00,SystemResetWarning,0826.8,5.00,000.00,028.4,027.4,000.0,036.8,029.8,10.6,0000.0,0003.57,0012.31,0002.83
2023-11-06 06:49:00,SystemResetWarning,0826.8,5.00,000.00,028.4,027.5,000.0,036.8,029.9,10.6,0000.0,0003.58,0012.35,0002.83
2023-11-06 06:50:00,SystemResetWarning,0826.8,4.99,000.00,028.4,027.5,000.0,036.8,029.9,10.6,0000.0,0003.60,0012.41,0002.84
2023-11-06 06:51:00,SystemResetWarning,0826.6,5.00,000.00,028.4,027.5,000.0,036.8,029.8,10.6,0000.0,0003.62,0012.17,0002.86
2023-11-06 06:52:00,SystemResetWarning,0826.6,4.99,000.00,028.4,027.5,000.0,036.8,029.9,10.6,0000.0,0003.62,0011.74,0002.86
2023-11-06 06:53:00,SystemResetWarning,0826.8,5.00,000.00,028.4,027.5,000.0,036.8,029.9,10.6,0000.0,0003.62,0011.86,0002.87
2023-11-06 06:54:00,SystemResetWarning,0826.8,4.99,000.00,028.4,027.5,000.0,036.8,029.9,10.6,0000.0,0003.63,0011.27,0002.87
2023-11-06 06:55:00,SystemResetWarning,0826.9,5.00,000.00,028.4,027.5,000.0,036.8,029.9,10.6,0000.0,0003.62,0010.74,0002.88
2023-11-06 06:56:00,SystemResetWarning,0827.0,5.01,000.00,028.4,027.5,000.0,036.8,029.9,10.6,0000.0,0003.62,0011.88,0002.88
2023-11-06 06:57:00,SystemResetWarning,0827.0,5.00,000.00,028.4,027.5,000.0,036.8,029.8,10.7,0000.0,0003.61,0011.97,0002.88
2023-11-06 06:58:00,SystemResetWarning,0827.1,5.00,000.00,028.4,027.4,000.0,036.8,029.8,10.6,0000.0,0003.64,0011.88,0002.86
2023-11-06 06:59:00,SystemResetWarning,0827.1,5.00,000.00,028.4,027.4,000.0,036.8,029.7,10.6,0000.0,0003.63,0011.66,0002.85
